EW9200 Weather Reports


Display with metric or nautical units.
time (UTC)temp
F
wind
direction
speed
MPH
gust
MPH
rain 1hr
in
rain 24hr
in
rain mn
in
humidity
%
barometer
mb
20260503032529 45 0 0.0 2.0 0.00 0.00 0.00 66 1016.2
20260503032029 44 232 0.0 2.0 0.00 0.00 0.00 66 1016.2
20260503031536 45 0 0.0 1.0 0.00 0.00 0.00 65 1016.4
20260503031029 45 0 0.0 1.0 0.00 0.00 0.00 65 1016.5
20260503030526 45 0 0.0 1.0 0.00 0.00 0.00 65 1016.4
20260503030041 45 0 0.0 1.0 0.00 0.00 0.00 65 1016.5
20260503025526 45 0 0.0 1.0 0.00 0.00 0.00 65 1016.4
20260503025029 44 0 0.0 1.0 0.00 0.00 0.00 66 1016.5
20260503024542 44 245 0.0 1.0 0.00 0.00 0.00 67 1016.5
20260503024029 44 0 0.0 1.0 0.00 0.00 0.00 68 1016.4
20260503023530 43 0 0.0 1.0 0.00 0.00 0.00 68 1016.5
20260503023047 43 0 0.0 1.0 0.00 0.00 0.00 68 1016.4
20260503022529 43 0 0.0 1.0 0.00 0.00 0.00 67 1016.4
20260503022029 44 0 0.0 1.0 0.00 0.00 0.00 67 1016.4
20260503021548 44 0 0.0 1.0 0.00 0.00 0.00 67 1016.4
20260503021029 44 0 0.0 0.0 0.00 0.00 0.00 66 1016.4
20260503020529 44 0 0.0 0.0 0.00 0.00 0.00 66 1016.4
20260503020049 45 0 0.0 0.0 0.00 0.00 0.00 65 1016.4
20260503015529 45 0 0.0 0.0 0.00 0.00 0.00 64 1016.4
20260503015028 46 0 0.0 0.0 0.00 0.00 0.00 63 1016.4
20260503014544 46 0 0.0 0.0 0.00 0.00 0.00 63 1016.3
20260503014029 46 0 0.0 1.0 0.00 0.00 0.00 61 1016.4
20260503013530 46 0 0.0 1.0 0.00 0.00 0.00 60 1016.3
20260503013044 47 0 0.0 0.0 0.00 0.00 0.00 58 1016.2
20260503012532 47 0 0.0 0.0 0.00 0.00 0.00 58 1016.2
20260503012029 48 0 0.0 0.0 0.00 0.00 0.00 57 1016.2
20260503011540 49 0 0.0 0.0 0.00 0.00 0.00 56 1016.2
20260503011029 49 0 0.0 0.0 0.00 0.00 0.00 54 1016.2
20260503010532 50 0 0.0 1.0 0.00 0.00 0.00 53 1016.0
20260503010053 50 0 0.0 1.0 0.00 0.00 0.00 53 1016.1
20260503005531 51 0 0.0 1.0 0.00 0.00 0.00 52 1016.1
20260503005031 52 0 0.0 1.0 0.00 0.00 0.00 50 1016.2
20260503004556 52 0 0.0 2.0 0.00 0.00 0.00 50 1016.1
20260503004030 53 274 0.0 2.0 0.00 0.00 0.00 48 1016.2
20260503003532 53 281 0.0 6.0 0.00 0.00 0.00 47 1016.1
20260503003100 53 338 1.0 6.0 0.00 0.00 0.00 48 1016.0
20260503002528 53 334 1.0 3.0 0.00 0.00 0.00 47 1016.2
20260503002030 53 131 0.0 2.0 0.00 0.00 0.00 50 1016.2
20260503001612 54 0 0.0 0.0 0.00 0.00 0.00 49 1016.2
20260503001032 53 0 0.0 0.0 0.00 0.00 0.00 48 1016.3
20260503000533 53 0 0.0 0.0 0.00 0.00 0.00 48 1016.3
20260503000059 54 0 0.0 1.0 0.00 0.00 0.00 47 1016.3
20260502235531 54 0 0.0 1.0 0.00 0.00 0.00 47 1016.2
20260502235031 54 85 0.0 2.0 0.00 0.00 0.00 47 1016.3
20260502234543 54 0 0.0 7.0 0.00 0.00 0.00 45 1016.3
20260502234031 55 321 1.0 7.0 0.00 0.00 0.00 44 1016.3
20260502233532 55 45 1.0 3.0 0.00 0.00 0.00 44 1016.3
20260502233044 56 268 0.0 3.0 0.00 0.00 0.00 45 1016.4
20260502232530 56 306 0.0 2.0 0.00 0.00 0.00 45 1016.4
20260502232031 56 26 0.0 2.0 0.00 0.00 0.00 46 1016.5
20260502231544 55 0 0.0 8.0 0.00 0.00 0.00 45 1016.4
20260502231030 55 304 2.0 8.0 0.00 0.00 0.00 44 1016.6
20260502230529 55 339 1.0 4.0 0.00 0.00 0.00 44 1016.6
20260502230045 55 287 1.0 8.0 0.00 0.00 0.00 44 1016.6
20260502225534 56 350 3.0 8.0 0.00 0.00 0.00 43 1016.7
20260502225030 56 248 1.0 6.0 0.00 0.00 0.00 44 1016.6
20260502224541 56 198 1.0 5.0 0.00 0.00 0.00 46 1016.7
20260502224029 56 70 2.0 5.0 0.00 0.00 0.00 44 1016.7
20260502223529 56 321 1.0 4.0 0.00 0.00 0.00 46 1016.7
20260502223037 56 349 1.0 4.0 0.00 0.00 0.00 43 1016.8
20260502222528 56 311 0.0 5.0 0.00 0.00 0.00 45 1016.6
20260502222028 56 297 1.0 5.0 0.00 0.00 0.00 45 1016.6
20260502221543 56 1 0.0 5.0 0.00 0.00 0.00 46 1016.6
20260502221031 56 4 1.0 5.0 0.00 0.00 0.00 44 1016.6
20260502220529 56 203 1.0 8.0 0.00 0.00 0.00 48 1016.7
20260502220045 56 41 2.0 8.0 0.00 0.00 0.00 43 1016.8
20260502215530 56 45 2.0 8.0 0.00 0.00 0.00 44 1016.8
20260502215028 57 210 3.0 8.0 0.00 0.00 0.00 43 1016.7
20260502214543 57 33 2.0 7.0 0.00 0.00 0.00 44 1016.8
20260502214028 57 349 3.0 6.0 0.00 0.00 0.00 44 1016.8
20260502213529 56 335 1.0 6.0 0.00 0.00 0.00 44 1016.8
20260502213059 56 308 2.0 6.0 0.00 0.00 0.00 44 1016.8
20260502212528 57 17 1.0 7.0 0.00 0.00 0.00 46 1016.8
20260502212029 56 338 2.0 7.0 0.00 0.00 0.00 47 1016.8
20260502211538 56 310 2.0 7.0 0.00 0.00 0.00 44 1017.0
20260502211027 56 271 2.0 7.0 0.00 0.00 0.00 43 1017.0
20260502210528 57 203 2.0 7.0 0.00 0.00 0.00 45 1017.1
20260502210038 58 9 1.0 10.0 0.00 0.00 0.00 41 1017.1
20260502205529 58 285 2.0 10.0 0.00 0.00 0.00 43 1017.1
20260502205028 58 242 0.0 6.0 0.00 0.00 0.00 45 1017.1
20260502204545 57 325 1.0 5.0 0.00 0.00 0.00 44 1017.2
20260502204029 57 328 1.0 8.0 0.00 0.00 0.00 48 1017.2
20260502203528 57 323 2.0 8.0 0.00 0.00 0.00 47 1017.2
20260502203043 56 58 3.0 8.0 0.00 0.00 0.00 44 1017.5
20260502202528 56 360 1.0 5.0 0.00 0.00 0.00 44 1017.6
20260502202028 56 359 2.0 7.0 0.00 0.00 0.00 46 1017.6
20260502201541 56 311 2.0 7.0 0.00 0.00 0.00 46 1017.7
20260502201028 56 311 3.0 7.0 0.00 0.00 0.00 45 1017.8
20260502200529 56 233 2.0 7.0 0.00 0.00 0.00 49 1017.8
20260502200100 56 318 1.0 6.0 0.00 0.00 0.00 47 1018.0
20260502195525 55 316 2.0 7.0 0.00 0.00 0.00 48 1018.1
20260502195028 55 325 3.0 7.0 0.00 0.00 0.00 46 1018.1
20260502194602 55 313 2.0 9.0 0.00 0.00 0.00 49 1018.2
20260502194029 54 342 1.0 9.0 0.00 0.00 0.00 51 1018.2
20260502193529 53 15 3.0 7.0 0.00 0.00 0.00 46 1018.4
20260502193043 53 311 3.0 6.0 0.00 0.00 0.00 47 1018.3
20260502192529 54 299 2.0 8.0 0.00 0.00 0.00 44 1018.4
20260502192028 54 1 2.0 8.0 0.00 0.00 0.00 47 1018.4
20260502191546 54 325 3.0 10.0 0.00 0.00 0.00 43 1018.4
20260502191028 55 324 3.0 10.0 0.00 0.00 0.00 43 1018.4
20260502190529 55 8 3.0 7.0 0.00 0.00 0.00 41 1018.5
20260502190044 56 23 2.0 6.0 0.00 0.00 0.00 49 1018.4
20260502185529 56 341 2.0 10.0 0.00 0.00 0.00 44 1018.6
20260502185029 54 86 2.0 10.0 0.00 0.00 0.00 49 1018.6
20260502184545 54 324 2.0 5.0 0.00 0.00 0.00 47 1018.7
20260502184030 54 316 2.0 6.0 0.00 0.00 0.00 46 1018.8
20260502183530 54 300 2.0 6.0 0.00 0.00 0.00 48 1018.9
20260502183045 53 47 3.0 6.0 0.00 0.00 0.00 47 1019.0
20260502182529 53 323 2.0 6.0 0.00 0.00 0.00 50 1019.0
20260502182028 53 15 2.0 7.0 0.00 0.00 0.00 50 1019.1
20260502181542 53 285 3.0 7.0 0.00 0.00 0.00 47 1019.1
20260502181028 54 296 2.0 8.0 0.00 0.00 0.00 48 1019.1
20260502180528 54 18 3.0 8.0 0.00 0.00 0.00 46 1019.2
20260502164028 52 288 2.0 7.0 0.00 0.00 0.00 50 1019.9
20260502163530 52 328 3.0 7.0 0.00 0.00 0.00 46 1019.8
20260502163042 53 1 1.0 7.0 0.00 0.00 0.00 50 1019.9
20260502162530 52 359 2.0 7.0 0.00 0.00 0.00 49 1020.0
20260502162027 52 243 2.0 7.0 0.00 0.00 0.00 51 1020.0
20260502161542 52 302 1.0 9.0 0.00 0.00 0.00 50 1020.2
20260502161030 51 50 2.0 9.0 0.00 0.00 0.00 50 1020.1
20260502160530 52 3 5.0 9.0 0.00 0.00 0.00 47 1020.2
20260502152028 51 240 1.0 6.0 0.00 0.00 0.00 55 1020.4
20260502151541 50 41 1.0 6.0 0.00 0.00 0.00 58 1020.2
20260502151031 49 282 2.0 6.0 0.00 0.00 0.00 53 1020.3
20260502150528 49 32 0.0 6.0 0.00 0.00 0.00 56 1020.2
20260502150104 49 350 3.0 6.0 0.00 0.00 0.00 50 1020.2
20260502130530 46 164 0.0 1.0 0.00 0.00 0.00 73 1020.0
20260502123530 42 0 0.0 0.0 0.00 0.00 0.00 95 1019.9
20260502123043 41 0 0.0 0.0 0.00 0.00 0.00 98 1019.9
20260502122528 40 0 0.0 0.0 0.00 0.00 0.00 98 1020.0
20260502122030 39 0 0.0 0.0 0.00 0.00 0.00 98 1020.0
20260502121541 37 0 0.0 0.0 0.00 0.00 0.00 98 1020.1
20260502121031 38 0 0.0 0.0 0.00 0.00 0.00 98 1019.9
20260502120530 35 0 0.0 0.0 0.00 0.00 0.00 98 1019.9
20260502115531 30 0 0.0 0.0 0.00 0.00 0.00 97 1019.8
20260502115031 30 0 0.0 0.0 0.00 0.00 0.00 97 1019.8
20260502114543 29 0 0.0 0.0 0.00 0.00 0.00 97 1019.7
20260502114030 29 0 0.0 0.0 0.00 0.00 0.00 97 1019.6
20260502113530 29 0 0.0 0.0 0.00 0.00 0.00 96 1019.6
20260502113055 28 0 0.0 0.0 0.00 0.00 0.00 96 1019.5
20260502112530 28 0 0.0 0.0 0.00 0.00 0.00 96 1019.5
20260502112033 28 0 0.0 0.0 0.00 0.00 0.00 96 1019.4
20260502111546 28 0 0.0 0.0 0.00 0.00 0.00 96 1019.5
20260502111029 28 0 0.0 0.0 0.00 0.00 0.00 96 1019.4
20260502110532 28 0 0.0 0.0 0.00 0.00 0.00 96 1019.4
20260502110046 28 0 0.0 0.0 0.00 0.00 0.00 96 1019.4
20260502105531 28 0 0.0 0.0 0.00 0.00 0.00 96 1019.4
20260502105033 28 0 0.0 0.0 0.00 0.00 0.00 96 1019.4
20260502104538 28 0 0.0 0.0 0.00 0.00 0.00 96 1019.4
20260502104031 28 0 0.0 0.0 0.00 0.00 0.00 96 1019.4
20260502103532 28 0 0.0 0.0 0.00 0.00 0.00 96 1019.3
20260502103106 28 0 0.0 0.0 0.00 0.00 0.00 96 1019.3
20260502102527 28 0 0.0 0.0 0.00 0.00 0.00 96 1019.3
20260502102030 28 0 0.0 0.0 0.00 0.00 0.00 96 1019.2
20260502101549 28 0 0.0 0.0 0.00 0.00 0.00 95 1019.2
20260502101029 28 0 0.0 0.0 0.00 0.00 0.00 95 1019.3
20260502100529 28 0 0.0 0.0 0.00 0.00 0.00 95 1019.2
20260502091030 29 0 0.0 0.0 0.00 0.00 0.00 95 1019.2
20260502090528 29 0 0.0 0.0 0.00 0.00 0.00 95 1019.2
20260502071032 31 0 0.0 0.0 0.00 0.00 0.00 92 1019.2
20260502070530 31 0 0.0 0.0 0.00 0.00 0.00 92 1019.1
20260502070042 31 0 0.0 0.0 0.00 0.00 0.00 92 1019.2
20260502065530 32 0 0.0 0.0 0.00 0.00 0.00 92 1019.3
20260502065029 32 0 0.0 0.0 0.00 0.00 0.00 92 1019.3
20260502064543 32 0 0.0 0.0 0.00 0.00 0.00 91 1019.4
20260502064029 32 0 0.0 0.0 0.00 0.00 0.00 91 1019.5
20260502063529 32 0 0.0 0.0 0.00 0.00 0.00 91 1019.3
20260502063048 32 0 0.0 0.0 0.00 0.00 0.00 91 1019.4
20260502062529 32 0 0.0 0.0 0.00 0.00 0.00 91 1019.5
20260502062031 32 0 0.0 0.0 0.00 0.00 0.00 91 1019.6
20260502061539 32 0 0.0 0.0 0.00 0.00 0.00 90 1019.5
20260502061029 32 0 0.0 0.0 0.00 0.00 0.00 90 1019.6
20260502060530 32 0 0.0 0.0 0.00 0.00 0.00 90 1019.6
20260502060044 32 0 0.0 0.0 0.00 0.00 0.00 89 1019.7
20260502055531 33 0 0.0 0.0 0.00 0.00 0.00 89 1019.5
20260502055031 33 0 0.0 0.0 0.00 0.00 0.00 89 1019.6
20260502054551 33 0 0.0 0.0 0.00 0.00 0.00 89 1019.7
20260502054030 33 0 0.0 0.0 0.00 0.00 0.00 89 1019.7
20260502053529 33 0 0.0 0.0 0.00 0.00 0.00 89 1019.7
20260502053046 33 0 0.0 0.0 0.00 0.00 0.00 89 1019.7
20260502052529 33 0 0.0 0.0 0.00 0.00 0.00 88 1019.7
20260502052029 33 0 0.0 0.0 0.00 0.00 0.00 88 1019.8
20260502051535 33 0 0.0 0.0 0.00 0.00 0.00 88 1019.8
20260502051029 33 0 0.0 0.0 0.00 0.00 0.00 87 1019.7
20260502050529 33 0 0.0 0.0 0.00 0.00 0.00 87 1019.8
20260502050044 33 0 0.0 0.0 0.00 0.00 0.00 87 1019.8
20260502045529 33 0 0.0 0.0 0.00 0.00 0.00 86 1019.8
20260502045031 34 0 0.0 0.0 0.00 0.00 0.00 86 1019.8
20260502044541 34 0 0.0 0.0 0.00 0.00 0.00 86 1019.7
20260502044029 34 0 0.0 0.0 0.00 0.00 0.00 85 1019.9
20260502043529 34 0 0.0 0.0 0.00 0.00 0.00 85 1019.8
20260502043043 34 0 0.0 0.0 0.00 0.00 0.00 84 1019.7
20260502042529 34 0 0.0 0.0 0.00 0.00 0.00 83 1019.6
20260502042030 34 0 0.0 0.0 0.00 0.00 0.00 83 1019.6
20260502041539 35 0 0.0 0.0 0.00 0.00 0.00 82 1019.6
20260502041029 35 0 0.0 0.0 0.00 0.00 0.00 82 1019.6
20260502040530 35 0 0.0 0.0 0.00 0.00 0.00 81 1019.5
20260502040046 36 0 0.0 0.0 0.00 0.00 0.00 81 1019.5
20260502035529 36 0 0.0 0.0 0.00 0.00 0.00 80 1019.5
20260502035029 37 0 0.0 0.0 0.00 0.00 0.00 80 1019.4
20260502034541 37 0 0.0 0.0 0.00 0.00 0.00 80 1019.5
20260502034029 37 0 0.0 1.0 0.00 0.00 0.00 79 1019.3
20260502033529 38 0 0.0 1.0 0.00 0.00 0.00 79 1019.3
20260502033044 38 0 0.0 1.0 0.00 0.00 0.00 78 1019.3